This is the latest recevied weather packets stored in our database for station/object SP3SWJ-13. If no packets are shown the sender has not sent any weather packets the latest 10 day(s).
| Time | Temp. | Humidity | Pressure | Rain* | Wind** | Luminosity | Snow |
|---|---|---|---|---|---|---|---|
| 1777446460 | 7.22° C | 39% | 1020.5 hPa | - | - | 348 W/m² | - |
| 1777446159 | 7.22° C | 40% | 1020.5 hPa | - | - | 332 W/m² | - |
| 1777445859 | 7.22° C | 40% | 1020.5 hPa | - | - | 320 W/m² | - |
| 1777445557 | 6.67° C | 44% | 1020.6 hPa | - | - | 307 W/m² | - |
| 1777445256 | 6.67° C | 46% | 1020.5 hPa | - | - | 293 W/m² | - |
| 1777444955 | 6.67° C | 47% | 1020.5 hPa | - | - | 280 W/m² | - |
| 1777444655 | 6.67° C | 47% | 1020.5 hPa | - | - | 264 W/m² | - |
| 1777444353 | 6.11° C | 49% | 1020.3 hPa | - | - | 250 W/m² | - |
| 1777444053 | 5.56° C | 51% | 1020.3 hPa | - | - | 237 W/m² | - |
| 1777443751 | 5° C | 53% | 1020.3 hPa | - | - | 222 W/m² | - |
| 1777443450 | 5° C | 54% | 1020.2 hPa | - | - | 209 W/m² | - |
| 1777443150 | 4.44° C | 54% | 1020.2 hPa | - | - | 196 W/m² | - |
| 1777442848 | 4.44° C | 57% | 1020.2 hPa | - | - | 183 W/m² | - |
| 1777442547 | 3.89° C | 58% | 1020.1 hPa | - | - | 170 W/m² | - |
| 1777442246 | 3.33° C | 59% | 1020 hPa | - | - | 155 W/m² | - |
| 1777441945 | 3.33° C | 63% | 1020 hPa | - | - | 143 W/m² | - |
| 1777441643 | 3.33° C | 64% | 1019.9 hPa | - | - | 34 W/m² | - |
| 1777441342 | 2.78° C | 65% | 1019.9 hPa | - | - | 34 W/m² | - |
| 1777441041 | 2.78° C | 67% | 1019.8 hPa | - | - | 33 W/m² | - |
| 1777440740 | 2.78° C | 67% | 1019.7 hPa | - | - | 33 W/m² | - |
| 1777440440 | 2.22° C | 67% | 1019.6 hPa | - | - | 31 W/m² | - |
| 1777440138 | 2.22° C | 68% | 1019.6 hPa | - | - | 30 W/m² | - |
| 1777439838 | 2.22° C | 68% | 1019.6 hPa | - | - | 29 W/m² | - |
| 1777439537 | 2.22° C | 67% | 1019.6 hPa | - | - | 28 W/m² | - |
| 1777439236 | 2.22° C | 67% | 1019.6 hPa | - | - | 27 W/m² | - |
* Rain since midnight (hover to see other rain measurements)
** Current wind speed in m/s (hover to see current wind gust speed)